SCP
0 0 0 0 0 0 0 0 0 0 0 0 0 0 0 0 0 0 0 0 0 0 0 0 0 0 0 0 0 0 0 0 0 0 0 0 0 0 0 0 0 0 0
0 0 0 0 0 0 0 0 0 0 0 0 0 0 0 0 0 0 0 0 0 0 0 0 0 0 0 0 0 0 0 0 0 0 0 0 0 0 0 0 0 0 0
0 0 0 0 0 0 0 0 0 0 0 0 0 0 0 0 0 0 0 0 0 0 0 0 0 0 0 0 0 0 0 0 0 0 0 0 0 0 0 0 0 0 0
0 0 0 0 0 0 0 0 0 0 0 0 0 0 0 0 0 0 0 0 0 0 0 0 0 0 0 0 0 0 0 0 0 0 0 0 0 0 0 0 0 0 0
0 0 0 0 0 0 0 0 0 0 0 0 0 0 0 0 0 0 0 0 0 0 0 0 0 0 0 0 0 0 0 0 0 0 0 0 0 0 0 0 0 0 0
0 0 0 0 0 0 0 0 0 0 0 0 0 0 0 0 0 0 0 0 0 0 0 0 0 0 0 0 0 0 0 0 0 0 0 0 0 0 0 0 0 0 0
0 0 0 0 0 0 0 0 0 0 0 0 0 0 0 0 0 0 0 0 0 0 0 0 0 0 0 0 0 0 0 0 0 0 0 0 0 0 0 0 0 0 0
0 0 0 0 0 0 0 0 0 0 0 0 0 0 0 0 0 0 0 0 0 0 0 0 0 0 0 0 0 0 0 0 0 0 0 0 0 0 0 0 0 0 0
0 0 0 0 0 0 0 0 0 0 0 0 0 0 0 0 0 0 0 0 0 0 0 0 0 0 0 0 0 0 0 0 0 0 0 0 0 0 0 0 0 0 0
0 0 0 0 0 0 0 0 0 0 0 0 0 0 0 0 -0 -0 0 0 0 0 0 0 0 0 0 0 0 0 0 0 0 0 0 0 0 0 0 0 0 0 0
0 0 0 0 0 0 0 0 0 0 0 0 0 0 0 0 -0 0 0 0 0 0 0 0 0 0 0 0 0 0 0 0 0 0 0 0 0 0 0 0 0 0 0
0 0 0 0 0 0 0 0 0 0 0 0 0 0 0 0 -0 0 0 0 0 0 0 0 0 0 0 0 0 0 0 0 0 0 0 0 0 0 0 0 0 0 0
0 0 0 0 0 0 0 0 0 0 0 0 0 0 0 0 0 0 0 0 0 0 0 0 0 0 0 0 0 0 0 0 0 0 0 0 0 0 0 0 0 0 0
0 0 0 0 0 0 0 0 0 0 0 0 0 0 0 0 0 0 0 0 0 0 0 0 0 0 0 0 0 0 0 0 0 0 0 0 0 0 0 0 0 0 0
0 0 0 0 0 0 0 0 0 0 0 0 0 0 0 0 0 0 0 0 0 0 0 0 0 0 0 0 0 0 0 0 0 0 0 0 0 0 0 0 0 0 0
0 0 0 0 0 0 0 0 0 0 0 0 0 0 0 0 0 0 0 0 0 0 0 0 0 0 0 0 0 0 0 0 0 0 0 0 0 0 0 0 0 0 0
0 0 0 0 0 0 0 0 0 0 0 0 0 0 0 0 0 0 0 0 0 0 0 0 0 0 0 0 0 0 0 0 0 0 0 0 0 0 0 0 0 0 0
0 0 0 0 0 0 0 0 0 0 0 0 0 0 0 0 0 0 0 0 0 0 0 0 0 0 0 0 0 0 0 0 0 0 0 0 0 0 0 0 0 0 0
0 0 0 0 0 0 0 0 0 0 0 0 0 0 0 0 0 0 0 0 0 0 0 0 0 0 0 0 0 0 0 0 0 0 0 0 0 0 0 -0 -0 -0 -0
0 0 0 0 0 0 0 0 0 0 0 0 0 0 0 0 0 0 0 0 0 0 0 0 0 0 0 0 0 0 0 0 0 0 0 0 0 0 0 -0 -0 -0 -0
0 0 0 0 0 0 0 0 0 0 0 0 0 0 0 0 0 0 0 0 0 0 0 0 0 0 0 0 0 0 0 0 0 0 0 0 0 0 0 0 0 0 0
0 0 0 0 0 0 0 0 0 0 0 0 0 0 0 0 0 0 0 0 0 0 0 0 0 0 0 0 0 0 0 0 0 0 0 0 0 0 0 0 0 0 0
0 0 0 0 0 0 0 0 0 0 0 0 0 0 0 0 0 0 0 0 0 0 0 0 0 0 0 0 0 0 0 0 0 0 0 0 0 0 0 0 0 0 0
0 0 0 0 0 0 0 0 0 0 0 0 0 0 0 0 0 0 0 0 0 0 0 0 0 0 0 0 0 0 0 0 0 0 0 0 0 0 0 0 0 0 0
0 0 0 0 0 0 0 0 0 0 0 0 0 0 0 0 0 0 0 0 0 0 0 0 0 0 0 0 0 0 0 0 0 0 0 0 0 0 0 0 0 0 0
0 0 0 0 0 0 0 0 0 0 0 0 0 0 0 0 0 0 0 0 0 0 0 0 0 0 0 0 0 0 0 0 0 0 0 0 0 0 0 0 0 0 0
Wind_Speed_500mb
7 7 12 17 20 24 28 30 32 34 35 37 40 43 44 45 47 49 52 54 58 62 64 66 72 72 72 74 80 85 88 88 98 119 95 90 90 100 101 98 102 97 99
8 12 17 22 24 27 31 34 36 37 36 37 39 42 44 46 48 49 52 55 58 62 66 70 75 77 82 84 85 86 83 86 94 114 111 98 95 95 101 102 100 105 104
18 21 24 27 27 28 29 30 32 35 37 39 41 42 44 44 46 48 51 54 55 57 59 61 63 65 72 74 77 85 92 98 101 102 127 101 100 99 99 104 107 111 105
31 31 31 30 29 30 31 32 32 35 38 40 40 41 43 46 47 47 49 50 51 53 55 54 55 56 61 66 74 80 87 91 88 93 104 105 97 99 96 104 105 109 114
44 44 40 37 36 33 31 31 32 35 38 40 41 42 44 47 45 44 45 46 49 55 57 56 58 57 59 57 61 65 65 76 89 103 103 99 105 93 88 94 105 112 112
52 53 51 47 40 36 33 33 36 39 41 43 44 46 47 49 45 46 48 52 52 56 61 61 60 60 60 59 64 62 65 74 84 91 104 103 118 101 92 101 91 97 99
61 61 58 50 40 36 35 36 38 40 42 44 45 47 49 50 50 53 51 54 57 59 59 63 65 66 66 65 71 75 71 74 83 91 104 112 120 114 106 105 101 111 102
67 66 63 53 44 38 37 37 38 40 41 44 46 49 52 52 49 51 51 55 59 61 61 64 65 68 67 67 77 82 85 83 85 84 88 100 113 115 113 112 114 109 115
66 69 64 55 45 38 35 35 38 40 43 46 50 52 54 54 51 47 49 55 61 63 64 65 64 67 67 68 71 84 93 93 90 92 94 96 98 102 104 109 106 102 106
63 66 61 53 42 36 35 36 39 44 49 54 58 59 59 58 54 44 44 53 61 64 68 68 65 67 69 68 69 82 97 104 102 105 112 103 97 102 95 90 110 111 94
59 62 57 48 39 35 36 37 43 49 55 58 63 64 65 60 56 47 42 47 54 64 70 72 70 72 73 71 71 80 88 99 108 104 106 100 93 91 89 88 94 96 107
61 59 55 47 40 38 38 39 46 53 59 64 69 71 69 67 56 54 43 43 45 57 66 72 75 76 78 78 75 79 86 92 99 101 101 96 91 82 80 75 82 91 87
60 60 57 49 44 42 42 44 51 58 67 75 78 80 77 72 63 60 55 50 48 53 58 67 73 76 79 81 73 75 84 91 90 90 92 88 76 71 66 71 72 83 86
61 60 55 50 46 45 44 47 55 63 70 76 81 81 78 76 70 62 64 60 52 59 64 69 68 72 76 80 75 76 81 80 77 76 77 75 76 65 61 63 75 78 76
62 58 53 48 46 47 49 52 59 66 73 79 77 72 73 78 73 67 60 64 62 58 69 72 72 71 78 78 73 73 77 74 70 64 61 63 58 43 39 40 42 48 51
55 52 50 50 50 51 55 59 60 67 72 69 67 65 64 70 70 64 62 59 61 54 65 68 70 69 75 76 72 73 67 64 60 54 49 49 39 27 21 18 22 33 44
45 46 48 50 51 53 57 64 73 67 67 67 61 60 54 57 62 62 63 57 57 57 58 61 64 65 64 65 63 59 55 49 48 42 38 37 27 17 8 9 26 44 57
46 48 49 54 55 58 60 66 72 73 74 74 57 54 51 52 56 56 58 60 54 47 53 56 57 55 54 54 48 44 38 36 34 32 25 23 16 9 3 20 36 52 62
44 46 51 53 55 60 64 70 67 64 62 68 65 59 47 48 49 50 53 55 52 45 43 42 43 40 38 35 31 27 25 23 23 22 21 21 11 13 24 35 46 54 58
44 47 54 58 62 61 59 61 60 55 52 57 57 56 52 47 42 44 46 47 44 38 31 27 21 20 17 15 16 17 18 19 23 27 30 35 31 33 41 45 47 49 52
49 51 57 59 58 58 55 53 50 48 46 49 48 44 43 45 44 40 37 32 31 24 12 6 4 3 6 10 12 14 17 19 21 21 23 29 28 27 30 33 36 40 44
45 47 46 48 47 45 44 38 37 38 35 38 39 37 36 35 33 27 19 17 11 8 1 5 4 4 6 9 11 14 15 15 17 22 22 19 21 23 23 24 26 29 34
30 30 33 33 34 31 27 26 26 27 26 25 24 23 22 20 15 9 6 2 2 2 3 6 6 7 9 11 10 10 12 14 16 17 21 21 17 17 16 19 26 31 33
22 22 23 22 20 18 17 17 16 15 13 12 11 9 7 6 5 4 5 6 5 4 6 7 8 9 10 10 9 12 14 15 15 16 17 15 13 18 20 22 25 26 28
12 9 7 6 7 10 10 10 11 9 12 13 13 11 9 12 5 7 7 8 7 8 9 11 12 12 11 12 12 11 14 14 14 15 17 17 18 20 19 18 18 19 20
6 8 9 12 14 17 20 20 20 18 20 19 14 15 16 12 11 12 11 9 10 12 13 14 16 15 12 9 6 6 4 4 6 10 15 17 17 18 17 14 14 15 17
Wind_Direction_500mb
201 232 251 257 265 272 277 280 280 280 279 278 279 281 282 282 283 285 288 291 291 292 292 290 290 289 285 283 283 283 278 275 273 283 279 279 275 275 276 274 276 278 275
263 273 272 269 270 273 277 280 282 282 280 280 279 281 282 283 282 284 288 290 291 292 293 292 293 293 291 290 285 278 276 276 279 282 283 280 277 275 275 276 273 266 274
271 277 274 271 270 271 271 270 272 277 280 280 280 280 282 283 286 290 290 290 290 291 292 295 298 298 298 298 296 292 290 287 279 274 278 279 277 276 275 274 271 272 267
269 269 267 264 264 268 271 271 273 279 283 283 283 281 281 281 285 287 286 287 290 291 293 295 298 301 303 304 302 297 293 289 286 280 278 280 276 275 271 269 268 265 268
263 259 259 257 256 266 279 284 288 288 287 288 287 285 285 285 288 287 287 290 295 299 304 310 310 311 311 313 310 310 305 301 296 287 282 283 280 275 274 272 266 267 263
257 253 251 249 255 268 281 291 293 293 293 293 293 294 295 296 299 297 300 302 303 305 309 309 308 312 315 316 311 304 297 296 293 288 281 275 276 276 275 268 275 259 252
257 249 248 248 256 268 279 291 295 297 299 300 302 303 305 306 309 307 303 302 303 305 307 310 315 317 319 318 314 306 298 297 292 289 285 278 275 273 274 271 266 259 259
252 245 244 244 251 261 274 289 295 298 300 303 305 307 308 308 311 308 305 304 303 307 310 312 314 317 319 319 315 311 308 308 309 302 295 293 281 276 270 269 271 268 261
244 242 242 240 246 258 273 286 292 297 302 305 308 309 310 311 312 312 307 307 307 309 309 309 314 317 318 321 315 311 310 313 319 311 303 295 289 284 270 262 260 259 258
250 242 237 238 246 261 278 290 299 304 307 310 313 314 314 315 311 316 309 308 308 310 308 311 316 319 318 319 316 318 317 322 319 315 305 302 294 284 276 259 253 253 254
244 233 232 237 249 263 278 293 301 305 308 311 312 312 313 315 310 314 306 305 309 309 309 313 315 319 320 319 320 321 319 322 319 318 311 309 305 291 277 265 254 252 249
232 228 230 237 248 262 275 290 301 307 309 312 313 313 314 315 312 309 310 302 308 308 311 312 315 320 319 320 322 325 324 323 321 322 315 311 310 299 285 273 257 259 260
225 224 227 235 247 260 274 292 303 310 313 315 314 311 311 311 310 309 315 310 303 308 311 311 315 317 318 318 324 327 325 327 327 324 316 322 320 308 291 275 264 257 261
225 228 234 241 250 261 276 293 303 308 308 307 305 305 304 305 307 310 314 315 311 311 313 313 315 316 317 318 323 326 327 329 328 325 317 326 331 320 293 276 263 259 253
226 231 238 248 258 270 280 289 295 300 301 300 299 299 303 303 304 305 309 311 312 311 309 312 314 319 316 317 320 323 327 331 331 331 323 335 336 315 294 277 257 246 232
234 240 248 256 264 273 280 283 288 291 292 292 292 295 299 299 300 300 298 302 303 303 304 308 311 314 312 315 319 322 328 332 336 332 333 342 336 316 297 269 226 202 179
250 256 262 267 272 276 280 286 286 283 287 291 294 297 297 293 293 289 289 293 297 301 299 304 308 310 312 314 317 322 328 333 335 328 340 348 343 320 285 150 145 146 140
262 270 276 279 281 283 286 288 289 293 293 297 300 298 298 293 293 294 290 288 293 294 298 304 307 310 312 315 319 324 328 330 330 329 345 1 0 351 129 133 135 135 133
273 277 278 281 287 288 288 285 287 291 295 299 304 305 306 297 296 292 290 290 293 297 298 300 305 310 316 321 326 338 350 4 11 15 21 36 54 96 114 121 123 123 122
275 284 292 291 286 283 283 287 289 292 298 302 306 307 309 307 303 295 294 293 293 295 298 303 310 317 332 347 6 23 38 46 49 55 59 69 78 95 107 113 114 115 112
276 274 274 278 284 285 288 291 294 297 306 306 305 305 305 307 303 302 299 297 301 299 298 313 345 17 38 33 27 32 38 43 44 51 59 74 84 93 101 103 105 105 109
264 271 276 279 283 285 289 291 296 304 308 306 304 303 301 302 305 306 305 307 307 294 262 102 76 15 20 16 16 20 22 32 50 55 58 67 84 87 83 87 95 106 120
285 287 288 292 290 292 291 302 312 313 308 301 303 309 316 315 314 317 315 65 53 65 22 58 44 21 11 5 0 11 21 36 49 57 56 56 60 72 92 118 125 126 125
289 292 291 288 292 299 314 331 323 314 321 336 349 14 15 14 16 49 52 70 54 12 5 10 20 18 29 29 25 43 47 51 63 72 75 81 97 109 117 121 120 119 120
290 288 288 303 347 355 20 31 22 37 47 54 57 72 81 76 58 62 44 35 31 26 25 25 35 36 31 48 56 63 75 78 86 88 91 90 103 107 108 114 114 116 118
100 88 80 75 78 72 66 66 66 67 72 72 71 67 64 65 58 51 45 39 36 37 35 33 37 39 35 30 27 51 85 113 121 119 112 113 111 104 92 91 100 111 118
Wind_Speed_850mb
7 7 12 17 20 24 28 30 32 34 35 37 40 43 44 45 47 49 52 54 58 62 64 66 72 72 72 74 80 85 88 88 98 119 95 90 90 100 101 98 102 97 99
8 12 17 22 24 27 31 34 36 37 36 37 39 42 44 46 48 49 52 55 58 62 66 70 75 77 82 84 85 86 83 86 94 114 111 98 95 95 101 102 100 105 104
18 21 24 27 27 28 29 30 32 35 37 39 41 42 44 44 46 48 51 54 55 57 59 61 63 65 72 74 77 85 92 98 101 102 127 101 100 99 99 104 107 111 105
31 31 31 30 29 30 31 32 32 35 38 40 40 41 43 46 47 47 49 50 51 53 55 54 55 56 61 66 74 80 87 91 88 93 104 105 97 99 96 104 105 109 114
44 44 40 37 36 33 31 31 32 35 38 40 41 42 44 47 45 44 45 46 49 55 57 56 58 57 59 57 61 65 65 76 89 103 103 99 105 93 88 94 105 112 112
52 53 51 47 40 36 33 33 36 39 41 43 44 46 47 49 45 46 48 52 52 56 61 61 60 60 60 59 64 62 65 74 84 91 104 103 118 101 92 101 91 97 99
61 61 58 50 40 36 35 36 38 40 42 44 45 47 49 50 50 53 51 54 57 59 59 63 65 66 66 65 71 75 71 74 83 91 104 112 120 114 106 105 101 111 102
67 66 63 53 44 38 37 37 38 40 41 44 46 49 52 52 49 51 51 55 59 61 61 64 65 68 67 67 77 82 85 83 85 84 88 100 113 115 113 112 114 109 115
66 69 64 55 45 38 35 35 38 40 43 46 50 52 54 54 51 47 49 55 61 63 64 65 64 67 67 68 71 84 93 93 90 92 94 96 98 102 104 109 106 102 106
63 66 61 53 42 36 35 36 39 44 49 54 58 59 59 58 54 44 44 53 61 64 68 68 65 67 69 68 69 82 97 104 102 105 112 103 97 102 95 90 110 111 94
59 62 57 48 39 35 36 37 43 49 55 58 63 64 65 60 56 47 42 47 54 64 70 72 70 72 73 71 71 80 88 99 108 104 106 100 93 91 89 88 94 96 107
61 59 55 47 40 38 38 39 46 53 59 64 69 71 69 67 56 54 43 43 45 57 66 72 75 76 78 78 75 79 86 92 99 101 101 96 91 82 80 75 82 91 87
60 60 57 49 44 42 42 44 51 58 67 75 78 80 77 72 63 60 55 50 48 53 58 67 73 76 79 81 73 75 84 91 90 90 92 88 76 71 66 71 72 83 86
61 60 55 50 46 45 44 47 55 63 70 76 81 81 78 76 70 62 64 60 52 59 64 69 68 72 76 80 75 76 81 80 77 76 77 75 76 65 61 63 75 78 76
62 58 53 48 46 47 49 52 59 66 73 79 77 72 73 78 73 67 60 64 62 58 69 72 72 71 78 78 73 73 77 74 70 64 61 63 58 43 39 40 42 48 51
55 52 50 50 50 51 55 59 60 67 72 69 67 65 64 70 70 64 62 59 61 54 65 68 70 69 75 76 72 73 67 64 60 54 49 49 39 27 21 18 22 33 44
45 46 48 50 51 53 57 64 73 67 67 67 61 60 54 57 62 62 63 57 57 57 58 61 64 65 64 65 63 59 55 49 48 42 38 37 27 17 8 9 26 44 57
46 48 49 54 55 58 60 66 72 73 74 74 57 54 51 52 56 56 58 60 54 47 53 56 57 55 54 54 48 44 38 36 34 32 25 23 16 9 3 20 36 52 62
44 46 51 53 55 60 64 70 67 64 62 68 65 59 47 48 49 50 53 55 52 45 43 42 43 40 38 35 31 27 25 23 23 22 21 21 11 13 24 35 46 54 58
44 47 54 58 62 61 59 61 60 55 52 57 57 56 52 47 42 44 46 47 44 38 31 27 21 20 17 15 16 17 18 19 23 27 30 35 31 33 41 45 47 49 52
49 51 57 59 58 58 55 53 50 48 46 49 48 44 43 45 44 40 37 32 31 24 12 6 4 3 6 10 12 14 17 19 21 21 23 29 28 27 30 33 36 40 44
45 47 46 48 47 45 44 38 37 38 35 38 39 37 36 35 33 27 19 17 11 8 1 5 4 4 6 9 11 14 15 15 17 22 22 19 21 23 23 24 26 29 34
30 30 33 33 34 31 27 26 26 27 26 25 24 23 22 20 15 9 6 2 2 2 3 6 6 7 9 11 10 10 12 14 16 17 21 21 17 17 16 19 26 31 33
22 22 23 22 20 18 17 17 16 15 13 12 11 9 7 6 5 4 5 6 5 4 6 7 8 9 10 10 9 12 14 15 15 16 17 15 13 18 20 22 25 26 28
12 9 7 6 7 10 10 10 11 9 12 13 13 11 9 12 5 7 7 8 7 8 9 11 12 12 11 12 12 11 14 14 14 15 17 17 18 20 19 18 18 19 20
6 8 9 12 14 17 20 20 20 18 20 19 14 15 16 12 11 12 11 9 10 12 13 14 16 15 12 9 6 6 4 4 6 10 15 17 17 18 17 14 14 15 17
Wind_Direction_850mb
201 232 251 257 265 272 277 280 280 280 279 278 279 281 282 282 283 285 288 291 291 292 292 290 290 289 285 283 283 283 278 275 273 283 279 279 275 275 276 274 276 278 275
263 273 272 269 270 273 277 280 282 282 280 280 279 281 282 283 282 284 288 290 291 292 293 292 293 293 291 290 285 278 276 276 279 282 283 280 277 275 275 276 273 266 274
271 277 274 271 270 271 271 270 272 277 280 280 280 280 282 283 286 290 290 290 290 291 292 295 298 298 298 298 296 292 290 287 279 274 278 279 277 276 275 274 271 272 267
269 269 267 264 264 268 271 271 273 279 283 283 283 281 281 281 285 287 286 287 290 291 293 295 298 301 303 304 302 297 293 289 286 280 278 280 276 275 271 269 268 265 268
263 259 259 257 256 266 279 284 288 288 287 288 287 285 285 285 288 287 287 290 295 299 304 310 310 311 311 313 310 310 305 301 296 287 282 283 280 275 274 272 266 267 263
257 253 251 249 255 268 281 291 293 293 293 293 293 294 295 296 299 297 300 302 303 305 309 309 308 312 315 316 311 304 297 296 293 288 281 275 276 276 275 268 275 259 252
257 249 248 248 256 268 279 291 295 297 299 300 302 303 305 306 309 307 303 302 303 305 307 310 315 317 319 318 314 306 298 297 292 289 285 278 275 273 274 271 266 259 259
252 245 244 244 251 261 274 289 295 298 300 303 305 307 308 308 311 308 305 304 303 307 310 312 314 317 319 319 315 311 308 308 309 302 295 293 281 276 270 269 271 268 261
244 242 242 240 246 258 273 286 292 297 302 305 308 309 310 311 312 312 307 307 307 309 309 309 314 317 318 321 315 311 310 313 319 311 303 295 289 284 270 262 260 259 258
250 242 237 238 246 261 278 290 299 304 307 310 313 314 314 315 311 316 309 308 308 310 308 311 316 319 318 319 316 318 317 322 319 315 305 302 294 284 276 259 253 253 254
244 233 232 237 249 263 278 293 301 305 308 311 312 312 313 315 310 314 306 305 309 309 309 313 315 319 320 319 320 321 319 322 319 318 311 309 305 291 277 265 254 252 249
232 228 230 237 248 262 275 290 301 307 309 312 313 313 314 315 312 309 310 302 308 308 311 312 315 320 319 320 322 325 324 323 321 322 315 311 310 299 285 273 257 259 260
225 224 227 235 247 260 274 292 303 310 313 315 314 311 311 311 310 309 315 310 303 308 311 311 315 317 318 318 324 327 325 327 327 324 316 322 320 308 291 275 264 257 261
225 228 234 241 250 261 276 293 303 308 308 307 305 305 304 305 307 310 314 315 311 311 313 313 315 316 317 318 323 326 327 329 328 325 317 326 331 320 293 276 263 259 253
226 231 238 248 258 270 280 289 295 300 301 300 299 299 303 303 304 305 309 311 312 311 309 312 314 319 316 317 320 323 327 331 331 331 323 335 336 315 294 277 257 246 232
234 240 248 256 264 273 280 283 288 291 292 292 292 295 299 299 300 300 298 302 303 303 304 308 311 314 312 315 319 322 328 332 336 332 333 342 336 316 297 269 226 202 179
250 256 262 267 272 276 280 286 286 283 287 291 294 297 297 293 293 289 289 293 297 301 299 304 308 310 312 314 317 322 328 333 335 328 340 348 343 320 285 150 145 146 140
262 270 276 279 281 283 286 288 289 293 293 297 300 298 298 293 293 294 290 288 293 294 298 304 307 310 312 315 319 324 328 330 330 329 345 1 0 351 129 133 135 135 133
273 277 278 281 287 288 288 285 287 291 295 299 304 305 306 297 296 292 290 290 293 297 298 300 305 310 316 321 326 338 350 4 11 15 21 36 54 96 114 121 123 123 122
275 284 292 291 286 283 283 287 289 292 298 302 306 307 309 307 303 295 294 293 293 295 298 303 310 317 332 347 6 23 38 46 49 55 59 69 78 95 107 113 114 115 112
276 274 274 278 284 285 288 291 294 297 306 306 305 305 305 307 303 302 299 297 301 299 298 313 345 17 38 33 27 32 38 43 44 51 59 74 84 93 101 103 105 105 109
264 271 276 279 283 285 289 291 296 304 308 306 304 303 301 302 305 306 305 307 307 294 262 102 76 15 20 16 16 20 22 32 50 55 58 67 84 87 83 87 95 106 120
285 287 288 292 290 292 291 302 312 313 308 301 303 309 316 315 314 317 315 65 53 65 22 58 44 21 11 5 0 11 21 36 49 57 56 56 60 72 92 118 125 126 125
289 292 291 288 292 299 314 331 323 314 321 336 349 14 15 14 16 49 52 70 54 12 5 10 20 18 29 29 25 43 47 51 63 72 75 81 97 109 117 121 120 119 120
290 288 288 303 347 355 20 31 22 37 47 54 57 72 81 76 58 62 44 35 31 26 25 25 35 36 31 48 56 63 75 78 86 88 91 90 103 107 108 114 114 116 118
100 88 80 75 78 72 66 66 66 67 72 72 71 67 64 65 58 51 45 39 36 37 35 33 37 39 35 30 27 51 85 113 121 119 112 113 111 104 92 91 100 111 118